Location: Schommer Observatory
(40.5200°N, 74.4500°W)
Time: 13:29:56
(UTC-05:00)

Envisat - Visible Passes

Search period start: 12 November 2018 00:00
Search period end: 22 November 2018 00:00
Orbit: 764 x 766 km, 98.2° (Epoch: 12 November)

Date Brightness Start Highest point End Pass type
(mag) Time Alt. Az. Time Alt. Az. Time Alt. Az.
12 Nov 4.6 17:26:16 10° E 17:28:52 14° ENE 17:31:28 10° NNE visible
12 Nov 3.1 19:04:26 27° S 19:07:15 73° WSW 19:12:21 10° NNW visible
13 Nov 3.1 18:27:31 22° SE 18:30:35 50° ENE 18:35:30 10° N visible
13 Nov 5.4 20:07:44 14° WSW 20:09:53 18° W 20:13:21 10° NW visible
14 Nov 4.0 17:50:35 12° ESE 17:54:06 24° ENE 17:58:06 10° NNE visible
14 Nov 4.1 19:30:48 28° SSW 19:32:52 41° W 19:37:40 10° NNW visible
15 Nov 4.8 17:16:21 10° ENE 17:17:50 11° ENE 17:19:19 10° NE visible
15 Nov 2.8 18:53:52 35° SSE 18:56:04 89° ENE 19:01:11 10° NNW visible
16 Nov 3.3 18:16:53 23° ESE 18:19:27 40° ENE 18:24:11 10° N visible
16 Nov 5.1 19:57:07 20° WSW 19:58:35 23° W 20:02:36 10° NW visible
17 Nov 4.2 17:39:55 11° ESE 17:43:02 19° ENE 17:46:34 10° NNE visible
17 Nov 3.7 19:20:09 39° SSW 19:21:39 52° W 19:26:36 10° NNW visible
18 Nov 2.8 18:43:09 41° SE 18:44:54 71° ENE 18:49:58 10° N visible
18 Nov 5.8 20:23:22 12° WSW 20:24:24 13° W 20:26:40 10° WNW visible
19 Nov 3.6 18:06:08 23° ESE 18:08:20 32° ENE 18:12:49 10° N visible
19 Nov 4.7 19:46:22 27° WSW 19:47:19 29° W 19:51:44 10° NW visible
20 Nov 6.4 06:15:42 10° ENE 06:16:48 11° E 06:17:55 10° E visible
20 Nov 4.5 17:29:08 10° E 17:31:59 15° ENE 17:34:54 10° NNE visible
20 Nov 3.2 19:09:21 52° SSW 19:10:26 66° WSW 19:15:30 10° NNW visible
21 Nov 3.0 18:32:19 41° SE 18:33:44 56° ENE 18:38:42 10° N visible
21 Nov 5.5 20:12:32 16° W 20:13:05 17° W 20:16:18 10° NW visible
